Погода в Филимоновке

Россия / Томская область     57°10′48″N   85°49′13″E
темп.,
°C
ветер,
м/с
пор.,
м/с
влажн.,
%
обл.,
%
осадки,
мм/ч
давл.,
гПа
погр.,
м
4 августа, ср
ср401:00+14ююв22965 0.6 100618
04:00+13ююв1197100 0.7 100613
07:00+15зюз1195100 0.7 100740
10:00+20в118194 0.3 1007363
13:00+21ююз2376100 3.2 1007696
16:00+22ююв126399 0.2 1006868
19:00+21вюв237097 0.2 1006185
22:00+16вюв1187100 0.1 100611
5 августа, чт
чт501:00+14всв00935 0.3 100611
04:00+14ссз119597 0.0 100611
07:00+15зсз009124 0.1 100639
10:00+21з016612 0.0 1005612
13:00+22с117233 1.6 1005999
16:00+21ссв128125 2.9 1005687
19:00+21ссв238735 4.4 1004200
22:00+16св2293100 0.9 100521
6 августа, пт
пт601:00+14св229741 0.9 100526
04:00+14всв119847 0.0 100519
07:00+15всв139770 0.0 100696
10:00+20в128199 0.0 1006451
13:00+23всв226328 0.3 10061159
16:00+23св237657 2.1 1007922
19:00+21св248798 3.7 1007258
22:00+18ссв1194100 0.1 100814
7 августа, сб
сб701:00+16всв119685 0.1 100816
04:00+15вюв11975 0.0 100911
07:00+16вюв119572 0.0 101039
10:00+22вюв11765 0.0 1011395
13:00+26вюв23532 0.0 10111221
16:00+28юв234621 0.0 10101837
19:00+21ю247567 0.1 101185
22:00+19с017682 0.1 101211
8 августа, вс
вс801:00+18всв008220 0.1 101211
04:00+16ссв11908 0.0 101211
07:00+18в118576 0.0 101317
10:00+24вюв1259100 0.0 1013324
13:00+28в224325 0.0 10131188
16:00+29ююв133449 0.0 10122263
19:00+27ю01545 0.0 101216
22:00+20в22646 0.0 101343